owner,sensor,date,latitude,longitude,vertical_datum,mass_concentration_of_oxygen_in_sea_water,qcFlag 
SCCF RECON,ioos:station:SCCF:11:1,2012-04-05T14:00:00Z,26.4679,-82.0631,2.248,5.94,1111122 
SCCF RECON,ioos:station:SCCF:11:1,2012-04-05T15:00:00Z,26.4679,-82.0631,2.356,6.11,1111122 
SCCF RECON,ioos:station:SCCF:11:1,2012-04-05T16:00:00Z,26.4679,-82.0631,2.39,6.22,1111122 
SCCF RECON,ioos:station:SCCF:11:1,2012-04-05T17:00:00Z,26.4679,-82.0631,2.269,6.48,1111122 
SCCF RECON,ioos:station:SCCF:11:1,2012-04-05T18:00:00Z,26.4679,-82.0631,2.117,7.02,1111122 
SCCF RECON,ioos:station:SCCF:11:1,2012-04-05T19:00:00Z,26.4679,-82.0631,1.96,7.16,1111122 
SCCF RECON,ioos:station:SCCF:11:1,2012-04-05T20:00:00Z,26.4679,-82.0631,1.811,7.25,1111122 
SCCF RECON,ioos:station:SCCF:11:1,2012-04-05T21:00:00Z,26.4679,-82.0631,1.699,7.28,1111122 
SCCF RECON,ioos:station:SCCF:11:1,2012-04-05T22:00:00Z,26.4679,-82.0631,1.62,7.23,1111122 
SCCF RECON,ioos:station:SCCF:11:1,2012-04-05T23:00:00Z,26.4679,-82.0631,1.62,7.73,1111122 
SCCF RECON,ioos:station:SCCF:11:1,2012-04-06T00:00:00Z,26.4679,-82.0631,1.74,7.38,1111122 
SCCF RECON,ioos:station:SCCF:11:1,2012-04-06T01:00:00Z,26.4679,-82.0631,1.925,6.89,1111122 
SCCF RECON,ioos:station:SCCF:11:1,2012-04-06T02:00:00Z,26.4679,-82.0631,2.08,6.67,1111122 
SCCF RECON,ioos:station:SCCF:11:1,2012-04-06T03:00:00Z,26.4679,-82.0631,2.19,6.41,1111122 
SCCF RECON,ioos:station:SCCF:11:1,2012-04-06T04:00:00Z,26.4679,-82.0631,2.287,6.41,1111122 
SCCF RECON,ioos:station:SCCF:11:1,2012-04-06T05:00:00Z,26.4679,-82.0631,2.38,6.22,1111122 
SCCF RECON,ioos:station:SCCF:11:1,2012-04-06T06:00:00Z,26.4679,-82.0631,2.31,6.25,1111122 
SCCF RECON,ioos:station:SCCF:11:1,2012-04-06T07:00:00Z,26.4679,-82.0631,2.076,5.91,1111122 
SCCF RECON,ioos:station:SCCF:11:1,2012-04-06T08:00:00Z,26.4679,-82.0631,1.98,5.65,1111122 
SCCF RECON,ioos:station:SCCF:11:1,2012-04-06T09:00:00Z,26.4679,-82.0631,1.972,5.62,1111122 
SCCF RECON,ioos:station:SCCF:11:1,2012-04-06T10:00:00Z,26.4679,-82.0631,1.9,5.73,1111122 
SCCF RECON,ioos:station:SCCF:11:1,2012-04-06T11:00:00Z,26.4679,-82.0631,1.833,5.47,1111122 
SCCF RECON,ioos:station:SCCF:11:1,2012-04-06T12:00:00Z,26.4679,-82.0631,1.942,5.47,1111122 
SCCF RECON,ioos:station:SCCF:11:1,2012-04-06T13:00:00Z,26.4679,-82.0631,2.148,5.49,1111122 
SCCF RECON,ioos:station:SCCF:11:1,2012-04-06T14:00:00Z,26.4679,-82.0631,2.306,5.84,1111122 
SCCF RECON,ioos:station:SCCF:11:1,2012-04-06T15:00:00Z,26.4679,-82.0631,2.377,5.9,1111122 
SCCF RECON,ioos:station:SCCF:11:1,2012-04-06T16:00:00Z,26.4679,-82.0631,2.409,6.34,1111122 
SCCF RECON,ioos:station:SCCF:11:1,2012-04-06T17:00:00Z,26.4679,-82.0631,2.343,6.63,1111122 
SCCF RECON,ioos:station:SCCF:11:1,2012-04-06T18:00:00Z,26.4679,-82.0631,2.172,7.11,1111122 
SCCF RECON,ioos:station:SCCF:11:1,2012-04-06T19:00:00Z,26.4679,-82.0631,2.015,6.98,1111122 
SCCF RECON,ioos:station:SCCF:11:1,2012-04-06T20:00:00Z,26.4679,-82.0631,1.868,7.15,1111122 
SCCF RECON,ioos:station:SCCF:11:1,2012-04-06T21:00:00Z,26.4679,-82.0631,1.727,7.15,1111122 
SCCF RECON,ioos:station:SCCF:11:1,2012-04-06T22:00:00Z,26.4679,-82.0631,1.609,6.97,1111122 
SCCF RECON,ioos:station:SCCF:11:1,2012-04-06T23:00:00Z,26.4679,-82.0631,1.513,6.71,1111122 
SCCF RECON,ioos:station:SCCF:11:1,2012-04-07T00:00:00Z,26.4679,-82.0631,1.502,6.45,1111122 
SCCF RECON,ioos:station:SCCF:11:1,2012-04-07T01:00:00Z,26.4679,-82.0631,1.63,6.33,1111122 
SCCF RECON,ioos:station:SCCF:11:1,2012-04-07T02:00:00Z,26.4679,-82.0631,1.808,6.24,1111122 
SCCF RECON,ioos:station:SCCF:11:1,2012-04-07T03:00:00Z,26.4679,-82.0631,1.957,6.44,1111122 
SCCF RECON,ioos:station:SCCF:11:1,2012-04-07T04:00:00Z,26.4679,-82.0631,2.09,6.35,1111122 
SCCF RECON,ioos:station:SCCF:11:1,2012-04-07T05:00:00Z,26.4679,-82.0631,2.173,6.24,1111122 
SCCF RECON,ioos:station:SCCF:11:1,2012-04-07T06:00:00Z,26.4679,-82.0631,2.162,6.12,1111122 
SCCF RECON,ioos:station:SCCF:11:1,2012-04-07T07:00:00Z,26.4679,-82.0631,2.05,6.1,1111122 
SCCF RECON,ioos:station:SCCF:11:1,2012-04-07T08:00:00Z,26.4679,-82.0631,1.889,5.81,1111122 
SCCF RECON,ioos:station:SCCF:11:1,2012-04-07T09:00:00Z,26.4679,-82.0631,1.78,5.45,1111122 
SCCF RECON,ioos:station:SCCF:11:1,2012-04-07T10:00:00Z,26.4679,-82.0631,1.72,5.44,1111122 
SCCF RECON,ioos:station:SCCF:11:1,2012-04-07T11:00:00Z,26.4679,-82.0631,1.677,5.49,1111122 
SCCF RECON,ioos:station:SCCF:11:1,2012-04-07T12:00:00Z,26.4679,-82.0631,1.723,5.62,1111122 
SCCF RECON,ioos:station:SCCF:11:1,2012-04-07T13:00:00Z,26.4679,-82.0631,1.873,5.9,1111122 
SCCF RECON,ioos:station:SCCF:11:1,2012-04-07T14:00:00Z,26.4679,-82.0631,2.059,6.24,1111122 
SCCF RECON,ioos:station:SCCF:11:1,2012-04-07T15:00:00Z,26.4679,-82.0631,2.18,6.72,1111122 
SCCF RECON,ioos:station:SCCF:11:1,2012-04-07T16:00:00Z,26.4679,-82.0631,2.269,6.88,1111122 
SCCF RECON,ioos:station:SCCF:11:1,2012-04-07T17:00:00Z,26.4679,-82.0631,2.32,6.89,1111122 
SCCF RECON,ioos:station:SCCF:11:1,2012-04-07T18:00:00Z,26.4679,-82.0631,2.269,6.78,1111122 
SCCF RECON,ioos:station:SCCF:11:1,2012-04-07T19:00:00Z,26.4679,-82.0631,2.117,7.06,1111122 
SCCF RECON,ioos:station:SCCF:11:1,2012-04-07T20:00:00Z,26.4679,-82.0631,1.941,7.27,1111122 
SCCF RECON,ioos:station:SCCF:11:1,2012-04-07T21:00:00Z,26.4679,-82.0631,1.798,7.24,1111122 
SCCF RECON,ioos:station:SCCF:11:1,2012-04-07T22:00:00Z,26.4679,-82.0631,1.642,7.18,1111122 
SCCF RECON,ioos:station:SCCF:11:1,2012-04-07T23:00:00Z,26.4679,-82.0631,1.513,6.95,1111122 
SCCF RECON,ioos:station:SCCF:11:1,2012-04-08T00:00:00Z,26.4679,-82.0631,1.426,6.56,1111122 
SCCF RECON,ioos:station:SCCF:11:1,2012-04-08T01:00:00Z,26.4679,-82.0631,1.43,6.23,1111122 
SCCF RECON,ioos:station:SCCF:11:1,2012-04-08T02:00:00Z,26.4679,-82.0631,1.566,6.51,1111122 
SCCF RECON,ioos:station:SCCF:11:1,2012-04-08T03:00:00Z,26.4679,-82.0631,1.744,6.48,1111122 
SCCF RECON,ioos:station:SCCF:11:1,2012-04-08T04:00:00Z,26.4679,-82.0631,1.9,6.43,1111122 
SCCF RECON,ioos:station:SCCF:11:1,2012-04-08T05:00:00Z,26.4679,-82.0631,2.003,6.4,1111122 
SCCF RECON,ioos:station:SCCF:11:1,2012-04-08T06:00:00Z,26.4679,-82.0631,2.07,6.32,1111122 
SCCF RECON,ioos:station:SCCF:11:1,2012-04-08T07:00:00Z,26.4679,-82.0631,2.03,6.23,1111122 
SCCF RECON,ioos:station:SCCF:11:1,2012-04-08T08:00:00Z,26.4679,-82.0631,1.929,6.14,1111122 
SCCF RECON,ioos:station:SCCF:11:1,2012-04-08T09:00:00Z,26.4679,-82.0631,1.86,5.91,1111122 
SCCF RECON,ioos:station:SCCF:11:1,2012-04-08T10:00:00Z,26.4679,-82.0631,1.83,5.85,1111122 
SCCF RECON,ioos:station:SCCF:11:1,2012-04-08T11:00:00Z,26.4679,-82.0631,1.78,5.78,1111122 
SCCF RECON,ioos:station:SCCF:11:1,2012-04-08T12:00:00Z,26.4679,-82.0631,1.776,5.65,1111122 
SCCF RECON,ioos:station:SCCF:11:1,2012-04-08T13:00:00Z,26.4679,-82.0631,1.87,6.29,1111122 
SCCF RECON,ioos:station:SCCF:11:1,2012-04-08T14:00:00Z,26.4679,-82.0631,2.038,6.74,1111122 
SCCF RECON,ioos:station:SCCF:11:1,2012-04-08T15:00:00Z,26.4679,-82.0631,2.19,6.94,1111122 
SCCF RECON,ioos:station:SCCF:11:1,2012-04-08T16:00:00Z,26.4679,-82.0631,2.292,7.47,1111122 
SCCF RECON,ioos:station:SCCF:11:1,2012-04-08T17:00:00Z,26.4679,-82.0631,2.37,6.72,1111122 
SCCF RECON,ioos:station:SCCF:11:1,2012-04-08T18:00:00Z,26.4679,-82.0631,2.354,7.88,1111122 
SCCF RECON,ioos:station:SCCF:11:1,2012-04-08T19:00:00Z,26.4679,-82.0631,2.23,7.84,1111122 
SCCF RECON,ioos:station:SCCF:11:1,2012-04-08T20:00:00Z,26.4679,-82.0631,2.057,8.02,1111122 
SCCF RECON,ioos:station:SCCF:11:1,2012-04-08T21:00:00Z,26.4679,-82.0631,1.898,8.04,1111122 
SCCF RECON,ioos:station:SCCF:11:1,2012-04-08T22:00:00Z,26.4679,-82.0631,1.744,8.0,1111122 
SCCF RECON,ioos:station:SCCF:11:1,2012-04-08T23:00:00Z,26.4679,-82.0631,1.604,7.71,1111122 
SCCF RECON,ioos:station:SCCF:11:1,2012-04-09T00:00:00Z,26.4679,-82.0631,1.48,7.26,1111122 
SCCF RECON,ioos:station:SCCF:11:1,2012-04-09T01:00:00Z,26.4679,-82.0631,1.42,6.93,1111122 
SCCF RECON,ioos:station:SCCF:11:1,2012-04-09T02:00:00Z,26.4679,-82.0631,1.48,6.89,1111122 
SCCF RECON,ioos:station:SCCF:11:1,2012-04-09T03:00:00Z,26.4679,-82.0631,1.64,6.93,1111122 
SCCF RECON,ioos:station:SCCF:11:1,2012-04-09T04:00:00Z,26.4679,-82.0631,1.81,6.8,1111122 
SCCF RECON,ioos:station:SCCF:11:1,2012-04-09T05:00:00Z,26.4679,-82.0631,1.931,6.85,1111122 
SCCF RECON,ioos:station:SCCF:11:1,2012-04-09T06:00:00Z,26.4679,-82.0631,2.031,6.86,1111122 
SCCF RECON,ioos:station:SCCF:11:1,2012-04-09T07:00:00Z,26.4679,-82.0631,2.11,6.7,1111122 
SCCF RECON,ioos:station:SCCF:11:1,2012-04-09T08:00:00Z,26.4679,-82.0631,2.13,6.57,1111122 
SCCF RECON,ioos:station:SCCF:11:1,2012-04-09T09:00:00Z,26.4679,-82.0631,2.07,6.59,1111122 
SCCF RECON,ioos:station:SCCF:11:1,2012-04-09T10:00:00Z,26.4679,-82.0631,1.99,6.44,1111122 
SCCF RECON,ioos:station:SCCF:11:1,2012-04-09T11:00:00Z,26.4679,-82.0631,1.95,6.16,1111122 
SCCF RECON,ioos:station:SCCF:11:1,2012-04-09T12:00:00Z,26.4679,-82.0631,1.92,6.05,1111122 
SCCF RECON,ioos:station:SCCF:11:1,2012-04-09T13:00:00Z,26.4679,-82.0631,1.95,6.22,1111122 
SCCF RECON,ioos:station:SCCF:11:1,2012-04-09T14:00:00Z,26.4679,-82.0631,2.067,6.86,1111122 
SCCF RECON,ioos:station:SCCF:11:1,2012-04-09T15:00:00Z,26.4679,-82.0631,2.209,6.84,1111122 
SCCF RECON,ioos:station:SCCF:11:1,2012-04-09T16:00:00Z,26.4679,-82.0631,2.325,7.07,1111122 
SCCF RECON,ioos:station:SCCF:11:1,2012-04-09T17:00:00Z,26.4679,-82.0631,2.4,7.01,1111122 
SCCF RECON,ioos:station:SCCF:11:1,2012-04-09T18:00:00Z,26.4679,-82.0631,2.419,7.19,1111122 
SCCF RECON,ioos:station:SCCF:11:1,2012-04-09T19:00:00Z,26.4679,-82.0631,2.355,7.72,1111122 
SCCF RECON,ioos:station:SCCF:11:1,2012-04-09T20:00:00Z,26.4679,-82.0631,2.235,7.94,1111122 
SCCF RECON,ioos:station:SCCF:11:1,2012-04-09T21:00:00Z,26.4679,-82.0631,2.061,7.75,1111122 
SCCF RECON,ioos:station:SCCF:11:1,2012-04-09T22:00:00Z,26.4679,-82.0631,1.899,7.71,1111122 
SCCF RECON,ioos:station:SCCF:11:1,2012-04-09T23:00:00Z,26.4679,-82.0631,1.75,7.43,1111122 
SCCF RECON,ioos:station:SCCF:11:1,2012-04-10T00:00:00Z,26.4679,-82.0631,1.62,7.1,1111122 
SCCF RECON,ioos:station:SCCF:11:1,2012-04-10T01:00:00Z,26.4679,-82.0631,1.511,6.65,1111122 
SCCF RECON,ioos:station:SCCF:11:1,2012-04-10T02:00:00Z,26.4679,-82.0631,1.46,6.42,1111122 
SCCF RECON,ioos:station:SCCF:11:1,2012-04-10T03:00:00Z,26.4679,-82.0631,1.53,6.8,1111122 
SCCF RECON,ioos:station:SCCF:11:1,2012-04-10T04:00:00Z,26.4679,-82.0631,1.692,6.51,1111122 
SCCF RECON,ioos:station:SCCF:11:1,2012-04-10T05:00:00Z,26.4679,-82.0631,1.844,6.84,1111122 
SCCF RECON,ioos:station:SCCF:11:1,2012-04-10T06:00:00Z,26.4679,-82.0631,1.96,6.62,1111122 
SCCF RECON,ioos:station:SCCF:11:1,2012-04-10T07:00:00Z,26.4679,-82.0631,2.057,6.61,1111122 
SCCF RECON,ioos:station:SCCF:11:1,2012-04-10T08:00:00Z,26.4679,-82.0631,2.111,6.59,1111122 
SCCF RECON,ioos:station:SCCF:11:1,2012-04-10T09:00:00Z,26.4679,-82.0631,2.116,6.52,1111122 
SCCF RECON,ioos:station:SCCF:11:1,2012-04-10T10:00:00Z,26.4679,-82.0631,2.04,6.51,1111122 
SCCF RECON,ioos:station:SCCF:11:1,2012-04-10T11:00:00Z,26.4679,-82.0631,1.98,6.18,1111122 
SCCF RECON,ioos:station:SCCF:11:1,2012-04-10T12:00:00Z,26.4679,-82.0631,1.99,6.09,1111122 
SCCF RECON,ioos:station:SCCF:11:1,2012-04-10T13:00:00Z,26.4679,-82.0631,2.0,6.05,1111122 
SCCF RECON,ioos:station:SCCF:11:1,2012-04-10T14:00:00Z,26.4679,-82.0631,2.041,6.25,1111122 
SCCF RECON,ioos:station:SCCF:11:1,2012-04-10T15:00:00Z,26.4679,-82.0631,2.144,6.26,1111122 
SCCF RECON,ioos:station:SCCF:11:1,2012-04-10T17:00:00Z,26.4679,-82.0631,2.27,6.77,1111122 
SCCF RECON,ioos:station:SCCF:11:1,2012-04-10T18:00:00Z,26.4679,-82.0631,2.378,6.98,1111122 
SCCF RECON,ioos:station:SCCF:11:1,2012-04-10T19:00:00Z,26.4679,-82.0631,2.43,7.1,1111122 
SCCF RECON,ioos:station:SCCF:11:1,2012-04-10T20:00:00Z,26.4679,-82.0631,2.445,7.08,1111122 
SCCF RECON,ioos:station:SCCF:11:1,2012-04-10T21:00:00Z,26.4679,-82.0631,2.397,7.94,1111122 
SCCF RECON,ioos:station:SCCF:11:1,2012-04-10T22:00:00Z,26.4679,-82.0631,2.278,8.09,1111122 
SCCF RECON,ioos:station:SCCF:11:1,2012-04-10T23:00:00Z,26.4679,-82.0631,2.12,7.83,1111122 
SCCF RECON,ioos:station:SCCF:11:1,2012-04-11T00:00:00Z,26.4679,-82.0631,1.981,7.47,1111122 
SCCF RECON,ioos:station:SCCF:11:1,2012-04-11T01:00:00Z,26.4679,-82.0631,1.85,7.4,1111122 
SCCF RECON,ioos:station:SCCF:11:1,2012-04-11T02:00:00Z,26.4679,-82.0631,1.72,6.76,1111122 
SCCF RECON,ioos:station:SCCF:11:1,2012-04-11T03:00:00Z,26.4679,-82.0631,1.62,6.49,1111122 
SCCF RECON,ioos:station:SCCF:11:1,2012-04-11T04:00:00Z,26.4679,-82.0631,1.57,6.34,1111122 
SCCF RECON,ioos:station:SCCF:11:1,2012-04-11T05:00:00Z,26.4679,-82.0631,1.63,6.3,1111122 
SCCF RECON,ioos:station:SCCF:11:1,2012-04-11T06:00:00Z,26.4679,-82.0631,1.78,6.19,1111122 
SCCF RECON,ioos:station:SCCF:11:1,2012-04-11T07:00:00Z,26.4679,-82.0631,1.91,6.47,1111122 
SCCF RECON,ioos:station:SCCF:11:1,2012-04-11T08:00:00Z,26.4679,-82.0631,2.0,6.25,1111122 
SCCF RECON,ioos:station:SCCF:11:1,2012-04-11T09:00:00Z,26.4679,-82.0631,2.083,6.31,1111122 
SCCF RECON,ioos:station:SCCF:11:1,2012-04-11T10:00:00Z,26.4679,-82.0631,2.13,6.24,1111122 
SCCF RECON,ioos:station:SCCF:11:1,2012-04-11T11:00:00Z,26.4679,-82.0631,2.13,6.3,1111122 
SCCF RECON,ioos:station:SCCF:11:1,2012-04-11T12:00:00Z,26.4679,-82.0631,2.09,6.27,1111122 
SCCF RECON,ioos:station:SCCF:11:1,2012-04-11T13:00:00Z,26.4679,-82.0631,2.05,6.31,1111122 
SCCF RECON,ioos:station:SCCF:11:1,2012-04-11T14:00:00Z,26.4679,-82.0631,2.03,6.22,1111122 
SCCF RECON,ioos:station:SCCF:11:1,2012-04-11T15:00:00Z,26.4679,-82.0631,2.03,6.41,1111122 
SCCF RECON,ioos:station:SCCF:11:1,2012-04-11T16:00:00Z,26.4679,-82.0631,2.077,7.61,1111122 
SCCF RECON,ioos:station:SCCF:11:1,2012-04-11T17:00:00Z,26.4679,-82.0631,2.165,7.36,1111122 
SCCF RECON,ioos:station:SCCF:11:1,2012-04-11T18:00:00Z,26.4679,-82.0631,2.251,7.11,1111122 
SCCF RECON,ioos:station:SCCF:11:1,2012-04-11T19:00:00Z,26.4679,-82.0631,2.33,7.37,1111122 
SCCF RECON,ioos:station:SCCF:11:1,2012-04-11T20:00:00Z,26.4679,-82.0631,2.36,7.69,1111122 
SCCF RECON,ioos:station:SCCF:11:1,2012-04-11T21:00:00Z,26.4679,-82.0631,2.341,7.91,1111122 
SCCF RECON,ioos:station:SCCF:11:1,2012-04-11T22:00:00Z,26.4679,-82.0631,2.28,7.93,1111122 
SCCF RECON,ioos:station:SCCF:11:1,2012-04-11T23:00:00Z,26.4679,-82.0631,2.19,8.17,1111122 
SCCF RECON,ioos:station:SCCF:11:1,2012-04-12T00:00:00Z,26.4679,-82.0631,2.07,7.68,1111122 
SCCF RECON,ioos:station:SCCF:11:1,2012-04-12T01:00:00Z,26.4679,-82.0631,1.948,7.29,1111122 
SCCF RECON,ioos:station:SCCF:11:1,2012-04-12T02:00:00Z,26.4679,-82.0631,1.82,6.89,1111122 
SCCF RECON,ioos:station:SCCF:11:1,2012-04-12T03:00:00Z,26.4679,-82.0631,1.699,6.45,1111122 
SCCF RECON,ioos:station:SCCF:11:1,2012-04-12T04:00:00Z,26.4679,-82.0631,1.599,6.18,1111122 
SCCF RECON,ioos:station:SCCF:11:1,2012-04-12T05:00:00Z,26.4679,-82.0631,1.559,5.92,1111122 
SCCF RECON,ioos:station:SCCF:11:1,2012-04-12T06:00:00Z,26.4679,-82.0631,1.62,6.0,1111122 
SCCF RECON,ioos:station:SCCF:11:1,2012-04-12T07:00:00Z,26.4679,-82.0631,1.75,5.84,1111122 
SCCF RECON,ioos:station:SCCF:11:1,2012-04-12T08:00:00Z,26.4679,-82.0631,1.861,6.36,1111122 
SCCF RECON,ioos:station:SCCF:11:1,2012-04-12T09:00:00Z,26.4679,-82.0631,1.96,6.4,1111122 
SCCF RECON,ioos:station:SCCF:11:1,2012-04-12T10:00:00Z,26.4679,-82.0631,2.04,6.16,1111122 
SCCF RECON,ioos:station:SCCF:11:1,2012-04-12T11:00:00Z,26.4679,-82.0631,2.089,6.19,1111122 
SCCF RECON,ioos:station:SCCF:11:1,2012-04-12T12:00:00Z,26.4679,-82.0631,2.109,6.21,1111122 
SCCF RECON,ioos:station:SCCF:11:1,2012-04-12T13:00:00Z,26.4679,-82.0631,2.09,6.2,1111122 
SCCF RECON,ioos:station:SCCF:11:1,2012-04-12T14:00:00Z,26.4679,-82.0631,2.041,6.36,1111122 
SCCF RECON,ioos:station:SCCF:11:1,2012-04-12T15:00:00Z,26.4679,-82.0631,2.02,6.28,1111122 
SCCF RECON,ioos:station:SCCF:11:1,2012-04-12T16:00:00Z,26.4679,-82.0631,1.996,6.59,1111122 
SCCF RECON,ioos:station:SCCF:11:1,2012-04-12T17:00:00Z,26.4679,-82.0631,1.996,6.99,1111122 
SCCF RECON,ioos:station:SCCF:11:1,2012-04-12T18:00:00Z,26.4679,-82.0631,2.029,7.61,1111122 
SCCF RECON,ioos:station:SCCF:11:1,2012-04-12T19:00:00Z,26.4679,-82.0631,2.12,7.68,1111122 
SCCF RECON,ioos:station:SCCF:11:1,2012-04-12T20:00:00Z,26.4679,-82.0631,2.213,7.57,1111122 
SCCF RECON,ioos:station:SCCF:11:1,2012-04-12T21:00:00Z,26.4679,-82.0631,2.259,7.7,1111122 
SCCF RECON,ioos:station:SCCF:11:1,2012-04-12T22:00:00Z,26.4679,-82.0631,2.246,8.04,1111122 
SCCF RECON,ioos:station:SCCF:11:1,2012-04-12T23:00:00Z,26.4679,-82.0631,2.219,8.54,1111122 
SCCF RECON,ioos:station:SCCF:11:1,2012-04-13T00:00:00Z,26.4679,-82.0631,2.139,7.75,1111122 
SCCF RECON,ioos:station:SCCF:11:1,2012-04-13T01:00:00Z,26.4679,-82.0631,2.049,7.51,1111122 
SCCF RECON,ioos:station:SCCF:11:1,2012-04-13T02:00:00Z,26.4679,-82.0631,1.96,7.07,1111122 
SCCF RECON,ioos:station:SCCF:11:1,2012-04-13T03:00:00Z,26.4679,-82.0631,1.85,6.77,1111122 
SCCF RECON,ioos:station:SCCF:11:1,2012-04-13T04:00:00Z,26.4679,-82.0631,1.73,6.44,1111122 
SCCF RECON,ioos:station:SCCF:11:1,2012-04-13T05:00:00Z,26.4679,-82.0631,1.616,6.16,1111122 
SCCF RECON,ioos:station:SCCF:11:1,2012-04-13T06:00:00Z,26.4679,-82.0631,1.56,5.85,1111122 
SCCF RECON,ioos:station:SCCF:11:1,2012-04-13T07:00:00Z,26.4679,-82.0631,1.59,5.92,1111122 
SCCF RECON,ioos:station:SCCF:11:1,2012-04-13T08:00:00Z,26.4679,-82.0631,1.69,5.72,1111122 
SCCF RECON,ioos:station:SCCF:11:1,2012-04-13T09:00:00Z,26.4679,-82.0631,1.81,5.91,1111122 
SCCF RECON,ioos:station:SCCF:11:1,2012-04-13T10:00:00Z,26.4679,-82.0631,1.92,5.8,1111122 
SCCF RECON,ioos:station:SCCF:11:1,2012-04-13T11:00:00Z,26.4679,-82.0631,2.0,5.84,1111122 
SCCF RECON,ioos:station:SCCF:11:1,2012-04-13T12:00:00Z,26.4679,-82.0631,2.06,5.94,1111122 
SCCF RECON,ioos:station:SCCF:11:1,2012-04-13T13:00:00Z,26.4679,-82.0631,2.099,5.96,1111122 
SCCF RECON,ioos:station:SCCF:11:1,2012-04-13T14:00:00Z,26.4679,-82.0631,2.103,6.14,1111122 
SCCF RECON,ioos:station:SCCF:11:1,2012-04-13T15:00:00Z,26.4679,-82.0631,2.087,6.06,1111122 
SCCF RECON,ioos:station:SCCF:11:1,2012-04-13T16:00:00Z,26.4679,-82.0631,2.05,6.44,1111122 
SCCF RECON,ioos:station:SCCF:11:1,2012-04-13T17:00:00Z,26.4679,-82.0631,2.0,6.99,1111122 
SCCF RECON,ioos:station:SCCF:11:1,2012-04-13T18:00:00Z,26.4679,-82.0631,1.994,7.18,1111122 
SCCF RECON,ioos:station:SCCF:11:1,2012-04-13T19:00:00Z,26.4679,-82.0631,2.06,9.04,1111122 
SCCF RECON,ioos:station:SCCF:11:1,2012-04-13T20:00:00Z,26.4679,-82.0631,2.15,7.8,1111122 
SCCF RECON,ioos:station:SCCF:11:1,2012-04-13T21:00:00Z,26.4679,-82.0631,2.17,8.21,1111122 
SCCF RECON,ioos:station:SCCF:11:1,2012-04-13T22:00:00Z,26.4679,-82.0631,2.182,8.21,1111122 
SCCF RECON,ioos:station:SCCF:11:1,2012-04-13T23:00:00Z,26.4679,-82.0631,2.2,8.43,1111122 
SCCF RECON,ioos:station:SCCF:11:1,2012-04-14T00:00:00Z,26.4679,-82.0631,2.21,8.33,1111122 
SCCF RECON,ioos:station:SCCF:11:1,2012-04-14T01:00:00Z,26.4679,-82.0631,2.17,8.91,1111122 
SCCF RECON,ioos:station:SCCF:11:1,2012-04-14T02:00:00Z,26.4679,-82.0631,2.1,8.02,1111122 
SCCF RECON,ioos:station:SCCF:11:1,2012-04-14T03:00:00Z,26.4679,-82.0631,2.01,7.64,1111122 
SCCF RECON,ioos:station:SCCF:11:1,2012-04-14T04:00:00Z,26.4679,-82.0631,1.883,7.25,1111122 
SCCF RECON,ioos:station:SCCF:11:1,2012-04-14T05:00:00Z,26.4679,-82.0631,1.77,6.86,1111122 
SCCF RECON,ioos:station:SCCF:11:1,2012-04-14T06:00:00Z,26.4679,-82.0631,1.65,6.29,1111122 
SCCF RECON,ioos:station:SCCF:11:1,2012-04-14T07:00:00Z,26.4679,-82.0631,1.59,5.86,1111122 
SCCF RECON,ioos:station:SCCF:11:1,2012-04-14T08:00:00Z,26.4679,-82.0631,1.615,5.92,1111122 
SCCF RECON,ioos:station:SCCF:11:1,2012-04-14T09:00:00Z,26.4679,-82.0631,1.714,6.38,1111122 
SCCF RECON,ioos:station:SCCF:11:1,2012-04-14T10:00:00Z,26.4679,-82.0631,1.83,6.14,1111122 
SCCF RECON,ioos:station:SCCF:11:1,2012-04-14T11:00:00Z,26.4679,-82.0631,1.912,6.08,1111122 
SCCF RECON,ioos:station:SCCF:11:1,2012-04-14T12:00:00Z,26.4679,-82.0631,2.001,6.18,1111122 
SCCF RECON,ioos:station:SCCF:11:1,2012-04-14T13:00:00Z,26.4679,-82.0631,2.093,6.39,1111122 
SCCF RECON,ioos:station:SCCF:11:1,2012-04-14T14:00:00Z,26.4679,-82.0631,2.146,6.64,1111122 
SCCF RECON,ioos:station:SCCF:11:1,2012-04-14T15:00:00Z,26.4679,-82.0631,2.151,6.62,1111122 
SCCF RECON,ioos:station:SCCF:11:1,2012-04-14T16:00:00Z,26.4679,-82.0631,2.093,6.83,1111122 
SCCF RECON,ioos:station:SCCF:11:1,2012-04-14T17:00:00Z,26.4679,-82.0631,2.025,6.83,1111122 
SCCF RECON,ioos:station:SCCF:11:1,2012-04-14T18:00:00Z,26.4679,-82.0631,1.969,7.04,1111122 
SCCF RECON,ioos:station:SCCF:11:1,2012-04-14T19:00:00Z,26.4679,-82.0631,1.922,7.5,1111122 
SCCF RECON,ioos:station:SCCF:11:1,2012-04-14T20:00:00Z,26.4679,-82.0631,1.95,7.43,1111122 
SCCF RECON,ioos:station:SCCF:11:1,2012-04-14T21:00:00Z,26.4679,-82.0631,2.0,7.02,1111122 
SCCF RECON,ioos:station:SCCF:11:1,2012-04-14T22:00:00Z,26.4679,-82.0631,2.053,6.94,1111122 
SCCF RECON,ioos:station:SCCF:11:1,2012-04-14T23:00:00Z,26.4679,-82.0631,2.107,6.76,1111122 
SCCF RECON,ioos:station:SCCF:11:1,2012-04-15T00:00:00Z,26.4679,-82.0631,2.139,6.51,1111122 
SCCF RECON,ioos:station:SCCF:11:1,2012-04-15T01:00:00Z,26.4679,-82.0631,2.135,6.65,1111122 
SCCF RECON,ioos:station:SCCF:11:1,2012-04-15T02:00:00Z,26.4679,-82.0631,2.176,6.57,1111122 
SCCF RECON,ioos:station:SCCF:11:1,2012-04-15T03:00:00Z,26.4679,-82.0631,2.13,6.47,1111122 
SCCF RECON,ioos:station:SCCF:11:1,2012-04-15T04:00:00Z,26.4679,-82.0631,2.022,6.54,1111122 
SCCF RECON,ioos:station:SCCF:11:1,2012-04-15T05:00:00Z,26.4679,-82.0631,1.9,6.25,1111122 
SCCF RECON,ioos:station:SCCF:11:1,2012-04-15T06:00:00Z,26.4679,-82.0631,1.788,6.0,1111122 
SCCF RECON,ioos:station:SCCF:11:1,2012-04-15T07:00:00Z,26.4679,-82.0631,1.707,5.78,1111122 
SCCF RECON,ioos:station:SCCF:11:1,2012-04-15T08:00:00Z,26.4679,-82.0631,1.66,5.64,1111122 
SCCF RECON,ioos:station:SCCF:11:1,2012-04-15T09:00:00Z,26.4679,-82.0631,1.7,5.73,1111122 
SCCF RECON,ioos:station:SCCF:11:1,2012-04-15T10:00:00Z,26.4679,-82.0631,1.81,5.94,1111122 
SCCF RECON,ioos:station:SCCF:11:1,2012-04-15T11:00:00Z,26.4679,-82.0631,1.936,6.15,1111122 
SCCF RECON,ioos:station:SCCF:11:1,2012-04-15T12:00:00Z,26.4679,-82.0631,2.022,6.16,1111122 
SCCF RECON,ioos:station:SCCF:11:1,2012-04-15T13:00:00Z,26.4679,-82.0631,2.119,6.34,1111122 
SCCF RECON,ioos:station:SCCF:11:1,2012-04-15T14:00:00Z,26.4679,-82.0631,2.18,6.53,1111122 
SCCF RECON,ioos:station:SCCF:11:1,2012-04-15T15:00:00Z,26.4679,-82.0631,2.211,6.7,1111122 
SCCF RECON,ioos:station:SCCF:11:1,2012-04-15T16:00:00Z,26.4679,-82.0631,2.202,6.6,1111122 
SCCF RECON,ioos:station:SCCF:11:1,2012-04-15T17:00:00Z,26.4679,-82.0631,2.145,6.72,1111122 
SCCF RECON,ioos:station:SCCF:11:1,2012-04-15T18:00:00Z,26.4679,-82.0631,2.061,6.84,1111122 
SCCF RECON,ioos:station:SCCF:11:1,2012-04-15T19:00:00Z,26.4679,-82.0631,2.016,7.45,1111122 
SCCF RECON,ioos:station:SCCF:11:1,2012-04-15T20:00:00Z,26.4679,-82.0631,2.0,7.82,1111122 
SCCF RECON,ioos:station:SCCF:11:1,2012-04-15T21:00:00Z,26.4679,-82.0631,2.02,7.72,1111122 
SCCF RECON,ioos:station:SCCF:11:1,2012-04-15T22:00:00Z,26.4679,-82.0631,2.1,7.15,1111122 
SCCF RECON,ioos:station:SCCF:11:1,2012-04-15T23:00:00Z,26.4679,-82.0631,2.18,6.96,1111122 
SCCF RECON,ioos:station:SCCF:11:1,2012-04-16T00:00:00Z,26.4679,-82.0631,2.22,7.39,1111122 
SCCF RECON,ioos:station:SCCF:11:1,2012-04-16T01:00:00Z,26.4679,-82.0631,2.23,6.95,1111122 
SCCF RECON,ioos:station:SCCF:11:1,2012-04-16T02:00:00Z,26.4679,-82.0631,2.264,6.4,1111122 
SCCF RECON,ioos:station:SCCF:11:1,2012-04-16T03:00:00Z,26.4679,-82.0631,2.259,6.2,1111122 
SCCF RECON,ioos:station:SCCF:11:1,2012-04-16T04:00:00Z,26.4679,-82.0631,2.188,6.61,1111122 
SCCF RECON,ioos:station:SCCF:11:1,2012-04-16T05:00:00Z,26.4679,-82.0631,2.07,7.21,1111122 
SCCF RECON,ioos:station:SCCF:11:1,2012-04-16T06:00:00Z,26.4679,-82.0631,1.938,6.65,1111122 
SCCF RECON,ioos:station:SCCF:11:1,2012-04-16T07:00:00Z,26.4679,-82.0631,1.801,6.33,1111122 
SCCF RECON,ioos:station:SCCF:11:1,2012-04-16T08:00:00Z,26.4679,-82.0631,1.7,6.02,1111122 
SCCF RECON,ioos:station:SCCF:11:1,2012-04-16T09:00:00Z,26.4679,-82.0631,1.649,5.65,1111122 
SCCF RECON,ioos:station:SCCF:11:1,2012-04-16T10:00:00Z,26.4679,-82.0631,1.7,6.01,1111122 
SCCF RECON,ioos:station:SCCF:11:1,2012-04-16T11:00:00Z,26.4679,-82.0631,1.84,6.05,1111122 